Wind_Speed
103 94 83 77 72 65 58 52 47 42 37 34 32 29 28 27 26 26 25 26 26 27 28 28 29 30 31 32 33 34 35 36 37 38 40 41 43 45 46 48 51 53 55 58 60 62 64 68 72 75 77 79 79 80 84 90 93 97 100 102 101 102 104 106 108 108 106 105 105 106 105 104 103 103 101 99 98 97 96 94 91 87 85 84 84 83 82
105 96 85 79 73 65 59 53 48 43 38 34 31 29 27 26 25 25 24 24 24 25 26 27 28 29 29 30 31 32 33 34 35 37 39 40 42 44 46 48 50 52 53 56 58 60 63 66 70 73 76 77 77 79 83 88 92 94 97 98 98 100 104 105 107 108 107 107 109 110 109 107 105 103 102 101 100 99 100 98 94 90 87 86 86 84 83
106 97 87 80 74 65 59 54 49 44 40 35 31 29 26 24 24 23 23 23 23 24 25 26 27 27 28 28 29 30 31 32 35 37 39 41 43 44 46 47 49 50 51 54 56 59 62 65 68 71 74 75 75 77 82 87 91 91 93 95 95 99 104 105 107 108 108 109 113 113 112 112 110 107 105 103 103 104 104 102 98 93 89 88 88 86 84
107 98 88 81 74 65 59 55 50 45 40 36 32 29 26 24 23 22 22 22 22 23 24 25 26 26 26 27 28 28 30 32 35 37 39 42 43 44 46 47 48 49 50 52 55 58 61 64 66 68 70 71 72 75 80 86 89 88 89 93 95 98 102 105 106 108 108 111 114 115 114 113 112 109 107 106 107 108 107 105 101 97 92 90 88 85 85
108 99 88 81 73 65 60 55 50 45 41 37 33 30 27 24 23 22 21 21 21 22 23 24 24 25 25 26 27 28 30 33 35 37 39 40 42 43 45 46 47 48 50 53 56 58 59 60 61 63 65 66 67 70 76 82 85 86 87 90 94 97 100 103 105 107 109 111 114 116 115 114 112 110 109 108 107 109 109 107 104 101 98 94 89 87 88
109 100 89 81 73 65 60 56 51 46 41 38 34 31 28 25 23 22 22 21 21 22 22 23 23 24 24 26 27 29 31 33 36 37 38 38 40 41 42 43 45 47 50 54 56 56 56 54 55 56 59 61 63 66 70 76 81 84 85 88 91 94 98 101 103 106 110 113 115 118 117 115 114 112 111 109 108 109 110 107 104 103 102 97 93 92 91
109 101 89 81 73 65 61 57 52 46 41 38 34 31 28 26 24 23 22 22 22 22 23 22 22 23 24 26 28 29 31 33 35 35 35 36 37 37 38 40 42 46 50 52 52 52 51 50 50 52 54 56 59 61 64 70 75 79 82 86 89 92 94 98 102 105 109 113 115 117 117 116 115 115 114 113 112 111 109 105 103 102 101 100 98 97 94
110 101 90 81 73 66 62 58 52 47 42 38 34 31 29 26 24 23 23 23 23 23 23 22 22 23 25 26 28 30 31 32 32 32 32 33 33 33 34 37 41 46 48 48 49 48 47 46 47 48 50 52 54 57 60 65 70 75 79 83 87 89 91 96 100 104 107 111 114 116 117 116 116 117 117 117 115 112 107 104 103 101 101 102 101 98 95
110 101 90 82 73 66 62 59 53 47 42 38 35 32 29 27 25 24 23 23 24 24 23 23 23 24 26 27 29 30 31 31 30 30 30 29 29 29 31 35 40 43 44 45 45 44 42 43 44 45 47 48 51 54 57 61 66 70 74 79 83 86 89 94 98 101 105 109 113 116 117 117 118 119 118 118 116 111 107 105 104 103 103 103 102 98 96
110 101 90 81 74 67 63 59 54 49 43 38 35 32 29 27 26 25 24 23 24 24 24 24 24 25 27 28 30 31 31 29 28 28 27 25 25 27 29 34 37 38 39 41 41 39 38 39 40 41 43 45 47 51 55 58 61 65 69 74 78 82 87 91 95 98 102 106 111 115 117 118 120 119 118 117 114 111 109 106 106 107 107 106 104 101 100
110 101 89 81 74 68 64 60 56 50 44 39 35 32 29 27 26 25 24 24 24 25 25 25 25 26 27 29 30 31 30 28 26 25 24 24 24 25 29 33 34 33 36 38 36 34 34 34 35 36 38 41 45 48 52 55 58 61 65 69 73 77 82 87 92 95 99 104 110 115 118 118 118 117 117 116 114 112 111 109 107 108 109 108 107 106 106
109 100 89 80 73 68 65 61 57 51 45 39 35 32 30 27 26 25 24 24 24 24 24 24 25 26 28 29 30 30 29 27 25 23 23 22 23 25 29 31 30 30 33 35 32 30 30 30 30 32 34 36 40 44 48 51 55 58 61 64 68 73 78 83 89 92 96 102 109 115 117 115 115 116 117 116 114 114 113 111 110 110 110 109 107 108 109
109 100 88 80 73 68 65 62 58 52 45 40 35 32 30 27 26 25 24 24 24 24 24 25 25 27 28 30 30 30 28 27 25 23 22 21 22 24 28 29 28 27 30 31 29 26 25 26 27 28 30 32 35 39 43 47 51 55 58 61 64 69 74 80 85 88 93 100 107 112 114 112 112 114 115 115 114 114 114 113 111 110 109 107 107 108 109
109 100 88 79 73 68 65 61 58 53 46 40 36 32 30 27 26 25 25 25 25 25 25 25 26 27 28 29 29 29 28 26 25 23 21 21 22 24 26 26 25 25 26 27 26 23 21 22 23 25 27 29 31 34 38 42 46 50 54 58 60 65 71 77 82 85 90 96 102 107 110 109 109 111 114 115 114 113 114 113 111 109 108 108 109 110 111
109 99 87 79 73 68 64 61 58 54 47 42 38 34 30 28 26 26 25 25 25 25 25 26 26 27 28 28 28 28 26 24 23 22 21 22 23 24 25 24 24 23 22 23 23 21 19 19 20 22 24 26 28 30 33 37 41 45 50 54 57 61 67 73 79 82 87 93 99 103 105 105 105 108 112 114 114 113 113 114 113 112 110 109 110 111 111
108 99 87 79 73 68 64 61 58 55 49 43 38 35 32 29 28 27 26 26 26 26 26 26 26 26 27 27 27 26 24 23 22 21 20 19 20 22 23 23 22 22 20 18 18 18 17 17 18 19 22 24 25 27 29 32 36 40 45 50 53 57 63 69 74 78 83 90 96 99 100 101 104 108 111 114 114 113 114 115 115 115 113 111 111 111 111
108 98 86 79 73 68 65 61 59 55 50 44 38 35 32 29 28 27 27 27 26 26 26 26 27 27 28 27 26 25 24 23 22 21 19 18 19 21 21 21 21 21 19 15 14 14 15 15 15 17 19 21 23 25 26 29 32 36 41 46 50 54 58 64 70 75 81 86 90 93 94 98 102 107 110 113 114 113 115 116 115 114 114 112 111 111 110
107 97 85 78 73 68 64 60 57 54 50 44 39 35 31 29 27 27 26 26 26 26 26 27 27 27 27 26 25 24 23 22 21 20 18 17 19 21 22 21 21 21 19 15 12 11 12 13 13 15 17 20 21 23 24 27 29 32 37 42 46 50 55 60 66 72 78 82 84 87 90 95 101 106 109 112 114 114 116 115 113 114 114 112 110 111 111
105 95 84 78 72 67 63 59 56 53 49 44 40 36 32 29 27 27 26 26 26 26 26 26 26 26 26 25 24 24 23 23 22 19 17 15 17 20 22 23 22 21 18 15 12 10 10 11 12 13 16 17 19 21 23 25 27 30 34 39 43 47 51 56 62 68 74 77 79 82 86 93 100 106 109 112 114 115 114 112 112 114 115 112 111 111 113
104 93 83 77 72 67 63 60 56 53 49 45 41 37 34 30 28 27 26 26 26 25 25 26 26 26 25 24 23 23 23 23 22 20 17 15 16 19 21 23 23 21 19 16 13 10 9 10 11 12 14 15 17 19 21 23 26 29 32 36 40 44 48 53 59 64 69 72 75 78 83 89 97 104 109 112 113 113 111 112 114 115 115 114 113 112 112
102 91 81 75 70 66 62 59 56 52 49 45 42 39 35 31 29 27 27 27 27 27 28 28 27 27 26 24 23 23 23 23 22 20 17 16 17 19 21 22 23 22 20 18 15 11 9 9 10 11 12 13 15 17 19 22 24 27 30 33 37 41 46 50 56 61 64 67 71 75 80 86 94 102 107 110 112 111 111 112 113 113 114 114 114 112 111
100 89 80 74 69 64 60 56 52 49 45 43 41 39 37 34 32 31 30 30 30 30 30 30 30 29 27 25 24 23 22 22 21 20 19 18 19 20 21 23 24 24 23 21 16 11 9 8 9 10 11 12 12 14 16 19 22 25 28 31 35 39 44 48 53 58 61 64 68 73 78 84 91 98 103 107 110 110 109 109 110 111 112 113 113 111 109
98 87 78 72 67 62 57 52 48 44 41 39 38 38 37 36 35 35 35 34 33 33 32 31 32 31 30 28 25 23 22 22 21 21 20 20 20 21 22 23 25 25 24 22 18 12 8 6 6 8 10 11 11 12 14 17 21 24 27 30 34 38 42 46 51 54 58 62 66 71 76 81 87 92 98 103 106 107 106 106 108 110 111 112 113 112 109
95 84 76 70 65 59 54 49 45 42 39 37 36 36 36 36 36 36 37 37 37 36 35 34 33 32 31 30 28 26 24 23 22 21 20 20 21 21 21 22 24 25 25 23 19 13 7 4 4 6 8 10 11 11 12 15 18 22 26 29 32 36 40 43 47 51 55 59 63 68 72 77 82 87 93 99 102 104 105 105 106 108 110 111 113 112 109
92 82 74 68 62 57 53 48 45 43 41 40 39 39 39 39 38 38 39 39 39 38 38 37 35 32 31 30 29 28 26 24 23 21 20 20 20 20 21 21 22 23 23 22 19 13 7 4 2 4 7 9 10 11 11 13 17 21 25 28 31 34 38 41 44 49 53 57 61 65 70 74 78 82 87 94 99 103 105 105 106 107 109 111 112 113 110
90 79 71 66 61 56 52 49 46 44 43 43 42 43 43 43 42 42 42 42 42 41 41 40 37 35 33 32 31 30 28 27 25 23 21 19 18 18 18 19 19 20 21 22 20 14 8 4 2 3 5 7 10 11 12 13 15 19 23 26 30 33 36 39 43 46 51 55 58 62 66 71 75 79 83 89 95 100 104 104 105 106 108 110 112 113 111
87 77 69 64 59 55 51 48 46 45 45 45 45 45 46 46 46 45 44 44 44 44 44 43 40 39 38 36 34 32 31 30 29 27 25 22 19 17 17 18 19 20 21 21 20 16 10 5 3 2 4 7 9 11 12 13 14 17 21 25 28 31 34 38 41 45 48 52 55 59 63 68 72 76 80 84 90 97 102 103 104 105 108 110 111 112 112
84 75 68 63 58 54 50 47 45 45 46 46 46 47 47 48 48 47 46 45 44 44 44 43 42 41 40 39 36 35 35 33 31 30 29 27 25 22 20 19 19 20 21 22 20 17 13 8 5 2 3 6 8 10 12 13 13 15 19 23 27 30 33 36 39 42 46 49 52 56 61 65 70 73 77 81 87 94 100 103 104 105 108 110 111 112 112
81 72 66 62 57 52 49 45 44 44 44 45 45 46 47 48 48 48 48 46 45 43 42 42 41 39 39 39 38 38 38 36 33 31 30 29 28 26 24 20 19 19 20 21 21 21 19 13 7 3 2 5 7 10 12 13 14 15 19 22 25 28 31 34 36 39 42 46 50 54 59 63 67 71 74 78 84 92 98 102 104 106 108 110 111 112 112
79 70 65 60 55 51 48 44 43 43 43 44 44 44 46 47 47 47 47 46 44 43 42 43 42 40 39 39 39 39 40 39 35 32 30 29 28 28 27 24 21 19 19 20 21 22 21 16 9 4 2 4 7 9 11 12 14 16 18 20 23 25 27 30 34 37 40 43 48 52 57 61 65 68 71 75 82 90 97 101 105 107 108 109 111 112 113
76 68 63 59 54 50 47 44 43 44 44 43 43 43 44 45 46 46 46 45 43 42 41 42 43 42 41 41 39 38 40 41 38 33 31 29 28 27 27 27 25 22 19 18 18 18 19 17 13 8 4 4 6 8 10 12 13 16 18 19 21 23 25 28 31 34 38 42 46 51 55 59 62 66 69 73 80 87 94 100 104 106 108 110 112 113 114
73 66 62 57 53 50 46 44 43 44 44 43 43 43 44 45 46 46 47 46 44 42 41 42 44 44 44 43 40 38 40 42 39 35 32 31 29 28 26 25 25 25 22 18 16 15 15 16 15 10 6 5 6 8 10 12 14 16 18 19 20 22 24 27 29 32 36 40 45 49 53 57 60 64 68 72 78 85 92 99 103 106 109 111 112 114 114
69 64 60 55 51 49 46 43 43 44 44 43 43 44 45 46 47 47 47 47 46 44 42 42 44 45 44 45 43 39 40 41 39 35 33 32 31 29 27 26 25 25 24 22 18 15 12 12 13 12 10 7 8 9 10 12 15 17 18 20 21 22 23 25 28 31 34 38 42 47 52 55 59 62 66 70 76 83 91 98 103 107 110 112 112 114 115
66 61 57 53 50 47 44 42 42 43 43 43 43 44 45 46 47 48 49 48 47 45 44 44 46 46 46 47 45 41 40 41 38 34 34 33 31 31 30 28 27 24 23 23 22 18 13 11 9 9 10 9 8 10 12 14 16 18 19 20 22 23 24 25 27 29 32 36 40 45 49 54 57 60 64 69 74 82 90 97 103 107 111 112 112 114 115
63 59 55 51 48 45 43 41 41 41 41 42 42 43 44 46 47 49 50 49 49 48 46 46 48 48 48 49 45 38 38 40 37 32 32 31 29 29 29 28 26 24 22 22 23 21 17 14 10 7 7 8 9 10 13 15 17 19 21 22 23 24 25 26 27 28 30 34 39 43 47 51 54 58 62 67 73 80 89 97 103 107 110 112 112 113 113
61 57 53 49 47 44 41 40 40 40 40 41 42 43 44 45 47 49 50 51 51 51 49 49 49 49 48 48 44 38 38 39 35 30 29 29 28 29 29 28 26 24 22 21 22 21 19 17 14 10 8 7 8 10 13 15 17 20 22 24 25 26 26 27 28 28 30 33 37 41 45 49 52 56 61 66 72 80 87 95 102 106 109 111 111 111 111
59 55 51 48 46 43 40 38 38 39 39 40 42 44 44 45 46 48 49 51 52 53 52 52 52 51 50 49 44 39 39 40 36 30 28 28 28 30 31 30 27 24 22 23 23 20 19 18 16 14 11 8 7 8 11 15 18 20 22 25 26 27 28 29 29 29 30 33 37 41 44 47 51 55 60 65 72 79 87 94 100 104 107 109 109 110 110
56 52 48 46 44 41 39 38 37 38 39 41 42 43 44 46 47 48 49 51 53 54 54 54 54 54 53 50 45 40 39 39 36 32 30 30 30 30 30 29 27 24 24 25 24 20 19 18 18 16 15 13 10 9 10 13 17 21 23 24 26 27 28 29 30 30 31 33 37 41 44 47 51 55 60 65 72 79 87 94 99 102 105 107 108 108 109
54 49 46 45 43 40 39 38 37 39 40 41 42 43 44 45 47 47 49 51 52 53 54 55 56 56 55 52 48 44 40 36 34 33 33 33 33 32 29 28 29 27 26 25 25 23 21 20 19 18 17 16 15 14 13 13 16 20 23 25 26 27 27 29 30 29 31 33 37 41 44 47 51 56 60 66 72 80 87 94 100 104 107 108 109 109 109
51 46 44 43 41 39 38 38 38 40 41 41 42 43 44 45 46 47 48 49 51 53 55 56 57 56 54 52 49 45 39 34 33 34 34 34 34 32 30 30 30 29 26 26 26 25 23 21 19 18 19 19 17 17 17 16 17 19 22 24 26 27 27 28 28 28 30 33 37 41 44 48 52 57 62 67 74 81 88 95 101 105 109 110 111 112 112
48 44 43 41 40 39 38 39 40 41 41 42 43 44 44 45 47 47 48 49 52 54 56 57 58 56 53 51 48 44 38 34 34 35 34 33 33 33 32 33 33 31 28 28 27 27 25 23 20 19 20 21 20 18 18 19 19 19 21 23 26 27 27 27 27 27 29 33 37 42 46 49 53 58 63 68 75 82 88 95 100 104 107 110 112 113 114
45 43 42 40 39 39 39 40 41 41 42 43 44 44 44 45 46 48 50 52 54 56 56 57 57 55 51 49 48 43 36 33 35 37 35 34 34 34 35 37 36 33 31 31 30 28 26 25 23 20 20 21 22 20 20 20 21 21 21 23 25 27 28 28 27 27 28 32 37 43 47 51 54 59 64 69 76 83 89 95 99 103 105 109 111 113 113
43 41 40 39 39 39 40 40 41 41 42 43 45 45 45 45 46 49 53 56 57 57 57 57 56 54 50 47 45 38 31 30 35 38 36 35 36 37 38 38 38 36 35 34 33 31 28 26 25 23 21 21 22 22 21 21 22 23 23 23 24 26 28 28 28 27 29 32 37 43 48 52 55 60 65 70 76 83 90 95 99 102 104 107 110 112 113
41 40 39 38 38 39 39 40 41 41 42 44 45 45 46 45 46 49 55 58 59 59 59 59 57 54 50 47 44 38 32 32 35 37 37 37 39 39 38 37 37 37 36 35 34 33 31 29 27 25 23 22 23 23 22 22 23 24 24 24 24 26 28 29 29 28 30 33 37 42 47 52 55 60 65 71 77 84 90 95 99 102 104 106 109 111 112
39 38 37 37 38 39 39 40 41 43 43 44 43 44 46 48 49 52 56 59 60 61 62 60 57 54 52 49 45 40 35 35 36 37 38 39 40 39 37 36 35 35 35 35 34 34 32 30 27 25 23 22 22 23 23 23 23 24 26 26 26 26 27 29 30 29 30 33 37 41 46 50 55 59 65 71 77 84 89 94 98 101 103 106 108 110 111
38 37 36 37 38 39 40 41 42 43 44 43 43 44 45 46 48 53 58 61 62 63 63 61 57 56 54 51 46 42 39 39 40 40 39 39 38 37 35 34 33 32 32 32 33 32 32 30 28 26 23 21 21 22 23 24 24 25 26 28 28 27 27 29 30 31 31 34 37 41 45 49 54 59 65 71 78 84 89 94 97 100 102 105 107 109 110
37 36 36 37 38 40 41 42 43 44 44 43 44 45 44 43 47 54 59 61 63 64 63 61 58 57 55 52 49 47 45 44 42 41 40 39 38 36 34 32 32 31 30 29 29 29 29 28 27 25 23 21 20 20 21 23 25 26 27 29 29 29 28 29 30 31 32 34 38 41 45 48 53 58 64 71 77 84 89 94 97 99 101 104 106 108 110
35 35 36 37 39 41 42 43 43 42 42 42 43 43 43 45 51 56 59 61 64 64 63 60 59 59 57 54 53 52 49 47 44 41 40 39 37 34 31 30 30 29 28 27 26 25 25 25 25 24 22 21 20 19 20 22 25 26 27 29 30 30 29 29 31 32 33 34 37 42 45 49 52 58 64 71 77 84 89 93 96 99 101 103 105 108 110
34 35 36 38 40 42 43 43 44 44 42 40 40 40 41 47 54 58 59 62 65 65 62 59 59 59 58 56 54 52 50 48 45 41 39 38 36 34 31 30 29 27 26 25 23 22 22 22 22 21 21 20 19 18 18 20 24 26 28 29 30 30 30 30 31 32 33 34 38 42 46 49 52 57 63 70 76 83 88 93 96 99 101 103 105 107 109
34 35 36 39 40 41 42 43 44 43 41 38 38 41 45 50 55 58 61 63 64 63 61 59 60 59 58 56 54 51 49 46 43 40 38 37 36 33 31 30 29 27 26 24 22 21 21 21 20 19 19 19 18 17 17 18 22 25 27 29 30 31 30 30 31 32 33 35 38 42 46 50 53 57 63 69 75 82 88 92 96 99 101 103 105 106 108
33 35 38 38 39 41 41 42 42 40 39 40 42 46 49 52 55 58 62 63 63 61 60 60 60 59 57 54 51 49 48 45 42 39 37 37 36 34 31 29 28 27 26 24 22 20 20 19 19 19 18 17 16 16 17 18 20 23 26 28 30 31 31 30 31 32 33 35 38 42 46 50 54 58 62 68 74 81 87 92 95 98 100 102 104 105 107
34 36 38 38 39 40 40 40 40 39 40 43 48 50 50 52 55 59 61 61 61 61 62 61 60 58 55 52 49 47 45 43 41 38 35 34 34 34 32 29 28 27 26 25 22 20 19 18 18 19 18 17 16 15 16 18 20 22 24 27 29 30 30 30 31 32 33 35 38 42 46 50 54 58 62 67 73 79 85 90 94 97 100 101 103 104 105
Wind_Direction
352 351 349 348 346 344 341 339 337 335 333 328 323 316 310 304 298 293 288 285 282 279 277 275 273 270 269 267 266 265 264 263 262 261 260 259 258 256 254 253 251 249 248 248 246 243 241 240 239 238 236 235 233 232 232 232 230 230 229 227 225 225 225 225 225 224 222 221 220 220 221 222 223 223 222 221 220 220 218 217 215 212 211 211 212 210 209
352 351 350 348 347 345 343 340 338 336 334 331 326 320 313 307 302 297 292 288 284 282 279 276 274 271 269 269 268 267 266 266 265 264 263 261 260 259 257 255 253 251 250 249 248 246 244 241 240 239 237 235 233 231 232 232 231 229 229 228 225 224 225 224 224 223 221 220 221 220 220 220 221 221 220 219 219 220 219 218 216 213 211 211 211 210 210
352 351 350 349 348 346 344 342 340 337 336 334 329 323 317 311 305 301 296 292 288 284 281 279 277 275 274 273 271 270 269 267 266 266 265 264 263 262 261 260 259 257 254 252 250 248 247 244 242 240 238 236 233 231 232 233 232 229 229 228 226 224 224 223 223 223 221 220 221 221 219 219 218 219 218 217 216 217 218 217 215 213 212 212 211 210 210
352 351 350 349 348 347 346 344 341 339 337 335 332 327 322 315 310 304 299 295 292 288 285 283 281 280 278 276 274 272 269 268 266 266 265 266 266 266 266 265 264 262 260 258 255 251 248 246 244 242 240 238 234 232 232 233 233 230 229 228 226 224 223 222 221 222 221 220 221 221 220 219 218 218 218 216 215 215 216 215 213 212 211 212 212 210 210
352 351 350 349 349 348 347 346 343 340 338 336 334 330 325 319 314 309 303 299 295 291 288 286 284 283 280 278 276 274 271 270 269 268 268 269 269 268 268 267 266 265 263 261 258 255 251 249 247 245 244 241 237 233 232 233 233 232 229 228 226 224 223 222 220 220 220 220 220 221 220 219 218 217 218 217 216 215 215 214 211 210 210 210 211 210 210
351 351 350 350 349 349 348 347 345 342 339 337 334 331 327 322 317 313 307 302 298 293 290 288 287 284 281 279 277 276 275 274 274 274 275 274 273 272 270 269 268 266 264 262 260 259 257 255 252 250 246 243 240 236 234 233 233 232 231 229 227 225 223 222 220 219 220 220 220 220 220 218 218 217 217 217 217 216 215 213 211 210 209 208 209 210 209
351 351 350 350 350 350 349 348 346 343 340 338 335 331 328 324 320 316 311 306 301 297 294 292 289 286 283 281 280 279 278 278 278 280 281 280 279 277 276 273 270 267 265 264 264 264 263 260 256 252 248 244 241 237 234 233 233 232 230 229 228 225 224 223 221 219 219 220 220 220 219 218 217 216 215 215 216 216 215 213 212 211 209 208 208 209 209
351 351 350 351 351 350 349 348 347 345 341 338 336 332 329 325 321 318 314 309 305 301 298 296 292 287 285 284 283 283 283 283 285 287 287 286 285 283 280 275 271 268 268 269 269 268 266 263 258 253 248 245 241 237 234 233 232 230 229 228 227 225 224 223 221 219 218 219 220 220 219 218 217 217 215 215 215 215 214 212 212 212 210 210 209 209 209
351 351 350 350 351 351 350 349 348 346 343 340 337 334 330 327 323 320 317 312 308 304 302 299 294 290 289 289 289 289 289 291 293 293 293 291 290 286 281 276 272 272 273 273 272 270 267 263 258 253 248 244 241 238 234 232 231 229 228 227 226 225 224 223 222 219 218 218 219 220 219 217 217 217 216 214 214 214 213 211 210 211 211 211 210 210 210
351 351 350 350 351 351 351 350 349 347 345 341 338 335 332 328 325 322 319 315 311 309 306 302 299 296 295 294 293 293 295 298 300 299 300 300 297 291 285 279 276 277 277 276 275 273 268 263 257 252 247 242 238 236 234 232 230 229 227 227 226 224 223 223 222 219 217 217 218 219 219 217 217 217 216 214 213 213 212 211 209 209 209 209 208 209 211
351 351 351 351 351 351 351 351 350 348 346 343 339 336 333 329 326 323 321 318 314 312 310 307 303 299 296 295 295 297 301 305 308 308 309 308 302 296 290 284 283 285 283 280 279 276 270 263 257 251 245 240 236 233 232 231 229 228 226 225 224 223 222 222 222 220 217 217 217 219 219 218 217 216 216 215 212 211 211 210 209 209 209 208 206 208 210
351 351 351 351 351 351 351 351 350 349 346 343 341 337 334 331 327 325 323 320 317 316 314 309 303 298 297 298 301 306 310 313 316 317 315 310 305 301 296 291 291 293 290 286 283 279 272 264 257 251 245 239 235 232 230 229 228 227 226 224 223 221 221 221 222 220 218 217 217 218 219 218 216 215 216 215 212 211 211 210 209 208 209 207 206 207 210
351 351 351 351 352 352 352 351 351 349 347 344 342 339 336 333 330 327 325 322 321 321 318 312 306 303 303 305 309 314 318 320 322 321 316 313 310 306 300 297 299 299 295 291 287 280 271 262 256 250 244 239 235 232 229 228 226 226 225 223 221 219 219 219 220 219 218 218 218 218 218 217 215 214 216 215 213 211 210 210 209 208 208 207 206 207 209
350 351 351 352 352 352 352 351 351 350 348 346 344 342 339 337 333 330 328 326 326 326 323 319 315 314 313 314 317 320 322 323 323 321 319 318 314 307 303 303 305 304 300 296 291 282 270 261 255 250 244 239 234 231 229 227 226 224 224 223 220 218 217 218 218 218 217 218 218 218 218 216 214 214 215 215 213 211 209 209 209 208 207 207 206 207 208
350 350 351 352 352 352 352 352 352 351 349 348 346 344 343 341 338 335 333 331 331 331 329 326 325 324 323 323 324 324 323 323 323 323 324 323 317 310 309 311 313 311 308 301 293 284 272 260 254 250 246 240 234 230 228 226 225 223 223 222 220 218 216 216 217 217 217 217 217 217 216 215 214 213 214 215 213 211 209 208 208 207 207 206 206 206 207
349 350 351 352 352 352 352 353 353 352 350 349 347 345 345 343 342 341 339 337 336 334 332 331 332 332 332 331 330 329 329 328 327 326 328 325 318 313 314 319 321 320 316 305 291 282 273 262 254 250 246 242 236 231 227 225 223 222 222 221 220 218 216 216 216 216 217 217 217 216 214 213 213 213 213 214 213 211 209 208 207 207 206 205 205 206 206
349 350 350 352 352 352 353 353 353 352 351 349 348 347 346 346 345 344 343 341 339 337 335 336 338 339 338 337 337 336 334 332 330 331 334 330 321 317 320 327 329 328 324 313 293 280 271 263 255 250 246 242 238 232 228 224 222 220 220 219 219 218 216 215 215 215 216 217 217 215 212 211 211 212 212 213 213 211 209 208 206 206 206 205 204 204 205
349 349 350 351 352 352 353 353 353 352 352 351 350 348 348 348 347 347 346 345 343 342 342 342 342 341 340 340 340 338 337 336 335 337 340 335 327 326 330 336 337 335 332 324 307 289 275 263 254 248 244 241 237 232 227 224 221 219 218 217 217 217 215 214 214 215 216 216 216 215 212 209 210 211 211 212 212 212 210 207 205 206 206 205 204 203 204
348 349 350 351 352 352 352 353 353 353 353 354 353 352 351 350 350 350 350 350 349 348 348 347 345 345 345 344 343 342 341 340 340 341 343 340 335 335 338 341 342 341 340 336 323 304 284 267 253 245 240 237 235 231 227 224 221 219 217 216 215 215 215 213 214 215 216 215 214 214 212 209 209 209 210 210 211 211 209 206 205 205 205 204 203 203 204
348 349 350 351 351 352 352 353 352 353 354 357 357 356 354 353 352 353 353 353 353 354 354 353 353 352 351 349 349 347 346 345 344 345 346 345 343 344 345 345 346 346 348 346 334 314 292 274 258 245 238 232 230 229 226 223 220 219 218 216 214 214 214 213 213 214 215 215 213 212 211 210 209 209 209 209 210 210 209 206 204 204 204 203 203 203 203
348 348 350 351 351 352 352 352 352 353 355 358 359 360 359 358 358 358 358 358 359 360 1 0 360 358 357 355 354 353 351 350 349 349 349 350 351 350 349 349 350 351 354 353 342 322 302 284 263 247 236 227 223 225 224 222 220 219 217 216 214 213 213 213 213 213 213 213 212 212 211 209 209 209 208 208 209 209 208 206 204 203 203 202 202 202 203
347 348 349 351 351 352 352 351 352 354 356 359 360 1 3 4 6 6 6 5 5 5 5 5 4 2 1 360 358 357 355 355 356 356 356 356 355 354 352 353 355 356 356 355 347 331 311 290 267 245 231 221 216 219 222 222 220 219 217 216 214 212 212 212 212 213 212 211 210 210 210 209 210 210 209 208 208 208 207 206 204 203 202 202 202 202 202
347 348 349 351 352 352 351 351 352 355 359 2 3 4 6 9 11 12 12 11 10 9 9 9 7 5 4 3 1 359 358 359 2 3 3 1 359 358 357 357 358 359 357 356 351 340 322 297 266 241 225 215 210 212 218 221 221 219 217 216 214 213 212 212 212 212 212 211 210 209 209 209 210 209 209 208 207 206 206 205 203 202 202 201 201 201 202
347 348 349 350 351 351 350 350 352 357 1 5 7 9 12 14 16 17 16 15 14 12 12 12 9 7 6 5 3 2 1 1 2 4 6 6 3 1 360 360 0 360 358 357 355 348 336 317 271 242 223 210 203 203 209 218 221 220 218 216 215 213 212 212 211 211 211 210 210 209 208 209 209 209 208 207 207 205 204 204 202 201 201 200 201 201 201
346 347 349 350 350 350 349 351 354 359 3 7 10 12 14 16 18 19 19 19 17 16 15 14 11 8 8 7 7 6 5 4 3 4 6 8 6 4 3 3 3 1 359 358 360 359 354 345 296 248 225 209 201 197 199 209 217 219 219 217 215 214 213 212 211 210 210 210 209 208 207 208 208 208 207 206 205 204 203 202 201 200 200 200 200 200 201
346 347 348 349 349 349 350 352 356 0 5 9 12 13 15 16 16 17 17 17 17 17 17 14 11 9 9 10 8 7 7 6 6 5 5 6 7 7 6 6 7 6 4 3 5 8 8 6 332 257 224 205 198 196 195 200 211 217 218 218 217 215 214 212 211 210 209 209 208 207 207 207 206 206 206 205 204 203 203 202 200 199 199 199 199 200 201
345 346 348 348 348 349 351 353 357 1 5 8 11 13 14 15 15 15 15 15 15 15 15 13 11 10 10 9 8 7 8 7 6 5 4 5 6 7 9 10 10 11 11 10 10 12 17 23 10 285 224 200 194 195 196 197 205 213 217 219 218 216 215 213 212 210 209 208 207 206 206 206 205 205 204 203 202 202 202 201 199 198 197 198 199 199 200
344 345 347 348 348 350 351 353 357 2 5 7 9 11 12 14 14 13 12 12 12 12 12 12 11 10 9 7 7 7 8 7 5 4 3 3 4 5 8 11 12 13 15 14 13 14 20 26 23 337 236 202 193 195 197 197 200 208 214 216 217 216 215 214 213 211 209 207 205 205 205 204 204 204 203 201 200 200 201 200 198 197 196 197 198 199 200
343 345 346 347 348 349 351 353 356 1 4 6 7 9 10 11 12 12 11 9 7 7 9 11 12 10 8 6 6 6 6 5 4 3 3 2 2 2 4 7 10 14 14 14 16 18 17 15 12 357 269 221 202 197 196 197 199 206 212 214 215 215 214 213 213 211 209 206 204 203 204 203 203 203 202 199 198 199 199 199 197 196 196 196 197 198 200
342 344 345 346 347 348 350 352 355 359 2 4 5 7 8 9 10 10 10 8 6 5 6 8 10 10 9 7 5 4 4 2 1 1 2 2 1 1 360 1 5 10 14 15 17 17 13 9 6 360 305 247 221 205 199 199 202 209 214 215 214 215 214 213 211 209 207 205 203 202 202 202 202 201 200 198 197 197 198 198 196 195 194 195 196 198 199
342 343 345 345 346 347 349 351 354 357 359 1 3 5 6 7 7 8 8 7 6 6 7 8 9 10 10 7 4 3 1 359 358 358 360 1 1 1 360 358 357 2 9 14 14 13 12 10 5 349 305 262 242 221 208 203 206 213 216 216 216 215 214 212 210 207 204 203 202 201 201 201 201 200 199 197 196 196 196 197 196 194 194 194 195 197 199
341 343 344 344 345 347 348 351 354 356 358 359 0 2 4 5 5 5 5 6 5 6 8 9 10 9 8 7 5 2 359 357 355 354 356 359 359 359 359 357 355 356 359 3 7 9 10 12 7 354 327 285 261 243 225 213 211 215 218 218 217 217 215 212 209 207 204 202 200 200 200 200 200 199 197 196 195 195 195 195 195 194 193 194 195 197 199
340 342 343 344 345 346 348 350 353 355 356 357 359 1 2 3 3 3 3 4 4 4 6 8 9 8 6 6 4 359 355 356 354 350 351 355 356 355 356 357 357 356 352 351 353 356 360 6 8 3 348 315 275 256 244 228 219 217 219 219 218 217 217 214 210 205 203 201 199 199 200 199 199 198 197 195 194 193 194 194 194 193 193 193 194 196 199
340 341 342 343 344 345 347 349 352 354 355 356 358 359 360 0 0 0 1 1 1 2 4 6 8 7 5 4 2 356 351 353 352 348 347 350 352 352 353 354 353 352 347 343 342 343 346 352 1 4 353 329 291 263 250 240 232 224 220 220 220 219 218 216 212 205 201 200 199 199 199 199 198 197 196 194 193 193 193 194 193 193 193 193 194 196 198
339 341 342 343 344 345 346 347 351 353 354 354 356 357 358 359 358 358 359 358 359 1 3 5 6 6 3 1 359 353 347 348 349 347 344 344 344 346 349 350 349 347 343 339 335 334 335 336 336 343 350 337 309 276 253 244 242 237 229 223 221 220 219 218 213 206 200 199 199 199 199 198 197 196 195 194 192 192 193 193 193 193 193 193 194 196 198
339 340 341 342 344 344 345 347 349 351 352 353 353 354 356 357 357 357 357 356 357 359 1 2 4 4 2 359 356 351 346 345 347 345 342 340 340 342 345 345 345 343 340 335 330 328 329 329 325 321 323 322 311 292 268 251 245 243 240 235 227 222 220 218 214 207 201 198 198 198 198 197 196 195 194 193 192 192 192 193 193 193 193 193 194 196 198
338 340 340 341 343 344 345 347 349 350 351 351 352 352 354 355 356 356 356 355 356 356 357 358 360 1 359 357 355 351 345 343 343 344 342 340 339 340 339 338 338 339 337 333 329 327 326 323 317 312 306 296 289 285 275 262 252 245 244 243 238 231 225 220 214 207 200 198 198 198 197 196 195 194 193 192 191 191 192 192 193 193 193 193 194 195 197
338 339 340 341 342 343 344 346 348 349 350 350 350 351 351 353 354 355 355 355 355 354 353 354 356 356 356 356 354 349 343 341 341 342 341 339 338 336 334 333 334 333 332 330 326 322 319 316 312 308 302 293 280 265 258 258 257 250 245 244 243 240 234 227 219 209 200 197 197 197 196 195 193 192 192 191 191 191 192 192 192 192 193 193 194 195 197
338 338 339 341 341 342 344 347 348 349 348 348 349 350 350 350 352 353 353 354 354 352 350 352 353 352 352 352 351 347 343 340 339 337 336 336 336 333 331 331 329 326 326 326 322 317 315 313 309 303 297 290 283 271 255 246 247 249 247 245 243 241 239 235 228 215 203 198 198 197 196 194 192 191 191 190 190 191 192 192 191 192 192 193 194 195 197
337 338 339 340 341 342 345 346 347 347 347 347 348 349 349 349 350 351 351 352 352 350 349 350 350 349 348 349 348 346 342 338 334 331 330 331 332 330 328 327 324 321 322 324 319 314 312 309 303 296 290 283 277 270 261 251 242 240 242 244 243 241 238 236 232 223 210 202 199 197 195 194 193 191 191 190 190 191 192 192 193 193 193 193 193 195 196
337 338 339 340 342 343 345 346 346 346 346 346 347 348 348 348 349 349 348 349 350 350 349 347 346 346 346 346 346 345 342 334 329 326 326 328 329 328 325 323 320 318 319 319 315 311 309 307 301 294 287 280 274 266 259 255 247 239 236 237 240 241 239 235 231 224 215 207 202 198 196 195 194 192 191 191 191 191 192 193 194 194 194 193 194 195 197
336 338 339 341 342 344 344 345 345 345 345 346 346 346 346 347 347 347 346 348 350 349 346 344 342 343 344 344 345 345 340 331 326 325 324 325 325 323 319 317 316 316 317 316 312 309 307 305 301 295 286 279 274 267 259 254 251 245 238 233 234 237 238 234 228 222 215 210 206 201 198 195 194 193 192 192 192 192 193 194 194 195 195 195 195 196 197
337 339 340 341 343 344 344 344 345 345 345 345 345 344 344 346 346 346 346 348 348 346 343 341 340 341 342 344 344 342 335 324 321 321 321 320 320 318 315 314 315 316 316 313 310 308 306 303 300 296 287 277 271 266 260 254 251 248 242 236 232 232 234 233 228 220 213 210 208 205 201 198 196 194 193 193 193 193 194 194 194 195 195 196 197 197 198
337 339 341 342 343 344 345 344 344 344 345 344 343 343 343 343 344 346 347 346 345 342 341 340 339 339 341 343 343 341 333 323 320 320 319 318 317 315 313 312 312 311 309 307 304 303 303 301 298 294 288 278 270 264 260 255 251 248 245 240 234 230 230 231 228 221 213 209 208 207 205 201 198 195 194 194 194 194 195 195 195 195 196 197 198 198 199
337 339 341 342 344 345 345 345 344 344 344 344 344 344 343 342 342 344 345 344 342 340 339 338 337 338 339 341 341 340 334 325 320 319 318 316 314 312 311 310 309 306 303 302 300 299 300 300 298 294 287 277 268 262 259 254 250 247 245 242 236 231 228 228 226 221 215 210 208 208 207 204 200 197 196 195 195 196 196 197 197 196 196 197 198 199 199
337 339 341 343 344 344 345 345 344 343 343 345 346 346 344 341 340 340 341 340 340 339 337 336 336 337 339 339 338 336 331 325 321 321 319 317 315 314 314 312 309 305 302 300 298 297 297 297 296 293 287 279 269 261 256 252 249 246 244 242 237 232 228 227 225 220 215 211 208 208 207 206 203 200 197 196 196 197 197 198 198 198 198 198 198 199 200
337 339 341 343 343 343 344 345 345 345 345 346 346 346 343 339 337 337 337 337 337 337 336 335 336 337 338 337 334 332 330 327 325 324 323 320 318 318 317 314 310 307 304 301 299 297 297 296 295 292 289 282 272 262 253 248 245 244 242 241 238 233 228 226 224 220 215 211 209 207 206 206 205 202 199 198 197 198 198 199 199 199 199 199 200 200 200
337 339 341 342 342 342 343 343 345 347 347 345 344 343 338 333 332 334 334 334 335 335 335 335 335 336 337 335 333 331 330 329 327 327 326 322 319 319 318 315 312 309 306 304 303 302 299 297 295 291 287 281 272 263 252 244 241 240 240 240 239 234 228 226 224 220 214 211 209 208 206 205 205 203 201 200 199 199 199 200 199 199 200 200 201 201 201
336 338 340 341 341 342 342 343 344 346 346 344 343 340 332 327 328 331 333 334 334 334 334 334 335 336 335 334 332 331 330 328 328 328 327 323 322 322 321 319 317 315 312 310 311 310 305 299 294 289 286 282 275 267 256 246 240 238 237 238 239 235 229 225 223 221 215 210 209 209 207 205 204 204 203 201 200 200 200 201 201 200 200 201 202 202 203
336 338 339 340 341 341 342 343 344 343 340 339 338 334 328 326 329 332 333 334 334 334 333 334 336 336 335 333 332 331 329 328 329 330 328 325 324 324 323 321 320 319 317 317 318 316 309 302 296 290 286 282 278 272 263 252 243 238 236 236 238 237 232 226 222 221 217 211 209 209 209 206 204 204 204 203 202 202 202 202 202 202 201 202 203 203 204
336 338 339 340 341 341 341 342 343 339 333 331 332 330 328 329 331 333 333 333 333 333 334 335 336 335 334 333 333 331 330 330 330 331 330 327 325 325 325 325 324 321 320 321 321 317 309 303 298 292 287 283 279 273 265 256 247 240 235 235 236 237 235 229 223 220 217 213 210 209 209 208 206 204 204 204 204 203 203 203 203 203 203 203 204 204 205
336 338 338 339 341 340 339 340 341 335 328 327 329 330 330 330 332 333 333 334 334 335 335 336 335 335 334 334 334 333 331 330 330 330 330 328 327 326 326 327 326 323 321 321 321 317 310 303 298 293 289 285 280 272 265 258 252 243 236 233 234 235 235 232 226 221 218 215 212 210 210 209 207 206 205 205 205 205 205 205 204 204 204 205 205 206 206
Height
10639 10628 10620 10612 10603 10595 10589 10583 10579 10576 10574 10570 10566 10563 10560 10557 10555 10553 10552 10550 10550 10549 10548 10547 10547 10546 10545 10545 10544 10544 10544 10545 10544 10544 10545 10545 10545 10544 10545 10546 10545 10546 10548 10547 10548 10551 10553 10554 10555 10558 10561 10565 10576 10585 10586 10586 10591 10595 10598 10608 10624 10634 10640 10648 10657 10668 10684 10696 10702 10706 10712 10722 10731 10741 10756 10769 10778 10788 10795 10803 10811 10819 10828 10836 10843 10850 10853
10634 10624 10615 10607 10599 10591 10583 10578 10573 10569 10568 10565 10562 10559 10555 10552 10549 10548 10547 10545 10544 10543 10542 10542 10541 10540 10540 10539 10539 10539 10539 10538 10538 10537 10537 10537 10536 10536 10536 10536 10535 10537 10538 10537 10538 10539 10541 10542 10543 10545 10548 10554 10564 10570 10571 10571 10575 10581 10587 10598 10614 10622 10625 10635 10643 10653 10670 10681 10682 10688 10698 10707 10716 10727 10740 10754 10767 10776 10782 10790 10801 10810 10820 10827 10833 10842 10848
10630 10620 10611 10602 10594 10587 10579 10573 10568 10564 10561 10559 10556 10554 10551 10548 10545 10543 10541 10540 10539 10538 10537 10536 10536 10535 10535 10534 10534 10534 10533 10532 10531 10531 10530 10529 10528 10528 10528 10527 10527 10528 10529 10529 10528 10528 10529 10530 10531 10533 10536 10542 10551 10558 10559 10557 10560 10569 10578 10587 10600 10606 10609 10620 10630 10639 10655 10663 10663 10671 10681 10688 10699 10711 10723 10737 10749 10756 10763 10776 10789 10802 10814 10819 10824 10835 10843
10627 10617 10607 10598 10590 10583 10576 10569 10564 10559 10556 10554 10551 10549 10546 10543 10541 10539 10537 10536 10535 10534 10533 10532 10531 10530 10530 10529 10529 10528 10528 10527 10525 10524 10523 10522 10521 10521 10520 10519 10519 10518 10519 10519 10517 10517 10518 10518 10519 10522 10525 10531 10540 10545 10546 10544 10547 10558 10567 10573 10581 10589 10596 10606 10617 10626 10638 10644 10648 10657 10668 10678 10689 10701 10712 10723 10732 10739 10748 10761 10777 10794 10805 10810 10819 10831 10835
10623 10613 10604 10595 10587 10580 10572 10566 10560 10555 10552 10549 10547 10544 10541 10539 10537 10535 10533 10532 10531 10529 10528 10527 10526 10526 10525 10524 10523 10523 10522 10520 10519 10518 10517 10516 10515 10514 10513 10511 10511 10510 10509 10507 10505 10505 10506 10508 10510 10513 10516 10521 10528 10532 10534 10534 10537 10546 10554 10559 10566 10575 10582 10591 10603 10613 10622 10629 10636 10644 10655 10667 10680 10692 10702 10711 10721 10729 10736 10748 10766 10780 10788 10797 10812 10821 10824
10619 10610 10601 10593 10584 10576 10570 10563 10557 10552 10548 10545 10542 10540 10537 10535 10533 10530 10529 10527 10526 10525 10524 10523 10522 10521 10520 10519 10518 10517 10516 10514 10513 10511 10510 10509 10508 10506 10506 10504 10503 10502 10499 10496 10495 10495 10496 10499 10501 10503 10506 10510 10514 10519 10523 10524 10527 10534 10541 10547 10554 10561 10569 10579 10589 10599 10605 10611 10618 10626 10638 10653 10667 10678 10690 10701 10711 10718 10726 10742 10758 10767 10776 10790 10801 10806 10812
10616 10606 10597 10590 10581 10573 10567 10561 10555 10549 10545 10541 10538 10535 10533 10531 10529 10527 10525 10523 10522 10521 10520 10519 10518 10516 10515 10514 10512 10511 10510 10509 10507 10505 10504 10502 10500 10499 10498 10497 10495 10492 10489 10488 10487 10486 10487 10489 10490 10492 10494 10497 10501 10506 10510 10513 10516 10522 10528 10534 10539 10547 10558 10566 10574 10583 10590 10596 10604 10614 10626 10642 10654 10663 10674 10686 10695 10704 10720 10738 10751 10760 10771 10781 10785 10790 10800
10613 10602 10594 10586 10579 10571 10564 10558 10552 10547 10542 10538 10535 10532 10529 10527 10525 10523 10521 10519 10517 10516 10515 10514 10513 10512 10510 10509 10507 10506 10505 10503 10501 10499 10498 10496 10494 10492 10491 10488 10485 10482 10481 10480 10479 10478 10478 10478 10479 10480 10482 10485 10489 10493 10498 10501 10504 10508 10514 10519 10525 10535 10546 10551 10558 10569 10578 10585 10594 10602 10614 10630 10640 10648 10659 10670 10680 10695 10714 10730 10742 10754 10766 10772 10776 10784 10794
10611 10600 10591 10583 10576 10569 10562 10556 10550 10544 10539 10535 10531 10529 10526 10523 10521 10519 10517 10515 10513 10512 10511 10510 10509 10507 10505 10504 10502 10500 10498 10497 10496 10494 10492 10490 10488 10486 10483 10480 10477 10475 10473 10471 10470 10469 10469 10468 10468 10469 10471 10474 10477 10481 10485 10488 10491 10496 10502 10507 10513 10523 10532 10536 10543 10555 10566 10575 10581 10587 10600 10615 10623 10632 10644 10657 10671 10688 10704 10717 10729 10742 10753 10761 10770 10783 10789
10609 10598 10589 10580 10572 10566 10560 10553 10547 10542 10537 10533 10529 10526 10523 10520 10518 10515 10513 10511 10509 10507 10506 10505 10504 10502 10500 10498 10496 10494 10492 10491 10490 10489 10487 10485 10482 10479 10476 10472 10470 10468 10466 10463 10461 10461 10460 10459 10459 10460 10461 10464 10467 10469 10473 10477 10481 10486 10491 10496 10503 10511 10518 10523 10531 10543 10555 10562 10567 10574 10586 10596 10605 10619 10635 10649 10665 10682 10693 10704 10715 10725 10735 10745 10761 10774 10777
10607 10596 10587 10578 10570 10563 10557 10551 10545 10539 10534 10530 10526 10523 10520 10517 10515 10512 10510 10508 10505 10504 10502 10501 10499 10497 10495 10493 10491 10489 10487 10486 10485 10483 10481 10479 10476 10473 10469 10465 10463 10462 10458 10455 10454 10453 10451 10450 10450 10451 10453 10455 10457 10459 10463 10467 10471 10475 10480 10486 10492 10499 10507 10513 10520 10530 10541 10548 10554 10559 10566 10579 10597 10614 10625 10638 10655 10669 10678 10691 10704 10714 10722 10733 10748 10758 10759
10605 10594 10585 10576 10568 10561 10555 10549 10543 10537 10532 10528 10524 10521 10518 10515 10512 10509 10507 10505 10502 10501 10499 10497 10495 10493 10490 10488 10486 10484 10483 10481 10480 10478 10476 10473 10470 10467 10463 10459 10457 10455 10451 10447 10447 10445 10444 10443 10443 10444 10445 10447 10449 10451 10454 10458 10461 10465 10470 10475 10481 10489 10497 10502 10507 10518 10529 10535 10538 10541 10549 10569 10592 10605 10613 10627 10643 10655 10666 10679 10691 10700 10710 10724 10739 10746 10749
10603 10593 10583 10575 10567 10559 10553 10547 10541 10535 10531 10526 10522 10519 10516 10512 10509 10507 10504 10502 10500 10498 10496 10493 10491 10488 10486 10484 10482 10480 10478 10476 10475 10473 10471 10468 10465 10461 10458 10454 10452 10449 10445 10442 10440 10438 10437 10437 10437 10438 10439 10440 10442 10444 10447 10450 10453 10457 10462 10466 10472 10479 10485 10489 10496 10507 10516 10520 10522 10530 10544 10564 10583 10596 10606 10618 10631 10644 10657 10669 10680 10692 10705 10720 10732 10736 10743
10600 10591 10582 10573 10565 10558 10552 10545 10539 10534 10529 10524 10521 10517 10514 10511 10507 10504 10502 10499 10497 10495 10493 10490 10487 10485 10483 10480 10478 10476 10474 10472 10470 10468 10465 10463 10459 10456 10453 10451 10448 10444 10441 10437 10434 10433 10432 10432 10432 10432 10433 10434 10436 10438 10441 10443 10446 10450 10454 10458 10463 10469 10475 10480 10486 10495 10503 10508 10515 10526 10538 10555 10575 10589 10594 10603 10619 10634 10646 10659 10674 10688 10699 10709 10717 10724 10733
10598 10589 10580 10572 10565 10558 10551 10545 10538 10533 10528 10523 10519 10515 10512 10509 10506 10503 10500 10497 10495 10492 10489 10487 10484 10482 10479 10477 10474 10472 10470 10468 10466 10463 10461 10458 10454 10451 10449 10446 10443 10440 10437 10433 10429 10428 10428 10427 10427 10427 10428 10429 10431 10433 10435 10438 10441 10444 10447 10451 10456 10461 10466 10471 10476 10484 10492 10496 10502 10513 10529 10550 10569 10578 10582 10593 10608 10622 10635 10649 10662 10672 10682 10693 10704 10714 10725
10596 10587 10578 10570 10563 10556 10550 10543 10537 10531 10526 10522 10517 10514 10511 10507 10504 10501 10498 10495 10492 10489 10487 10484 10481 10479 10476 10473 10471 10468 10466 10464 10461 10459 10458 10455 10451 10448 10445 10443 10439 10436 10433 10429 10426 10425 10424 10423 10423 10423 10424 10425 10427 10428 10430 10433 10436 10439 10442 10445 10450 10454 10459 10463 10469 10478 10483 10485 10491 10504 10524 10544 10556 10563 10573 10583 10594 10608 10622 10634 10644 10655 10667 10678 10691 10703 10717
10595 10585 10577 10569 10562 10555 10548 10541 10536 10530 10525 10520 10516 10513 10509 10506 10502 10499 10496 10493 10490 10488 10485 10482 10479 10476 10473 10471 10468 10465 10463 10460 10458 10456 10454 10451 10447 10445 10442 10439 10436 10433 10429 10426 10423 10422 10420 10420 10420 10420 10421 10422 10423 10425 10426 10428 10431 10433 10436 10440 10444 10448 10452 10457 10463 10469 10473 10477 10487 10501 10518 10533 10542 10552 10563 10571 10582 10597 10607 10617 10633 10648 10658 10668 10681 10696 10709
10593 10584 10575 10568 10561 10554 10548 10542 10536 10530 10525 10520 10516 10512 10508 10505 10501 10498 10495 10492 10489 10486 10482 10480 10477 10474 10471 10469 10466 10463 10460 10458 10455 10453 10451 10448 10444 10441 10438 10435 10433 10429 10426 10423 10420 10419 10417 10417 10417 10417 10417 10419 10420 10421 10423 10424 10426 10428 10431 10434 10438 10442 10446 10451 10456 10460 10463 10470 10482 10496 10510 10521 10529 10539 10550 10560 10571 10581 10590 10608 10630 10641 10649 10664 10678 10688 10697
10592 10583 10574 10567 10560 10554 10548 10542 10537 10531 10525 10520 10515 10511 10507 10504 10500 10497 10494 10490 10487 10484 10481 10478 10475 10473 10470 10467 10464 10461 10458 10455 10453 10450 10448 10445 10442 10439 10435 10432 10430 10426 10423 10420 10418 10416 10415 10414 10414 10414 10415 10416 10417 10418 10419 10421 10422 10424 10426 10429 10433 10436 10440 10445 10449 10453 10458 10467 10478 10489 10499 10508 10516 10525 10536 10546 10555 10566 10582 10605 10620 10626 10639 10657 10669 10677 10684
10591 10582 10573 10566 10559 10552 10546 10541 10535 10530 10525 10520 10515 10511 10506 10503 10499 10496 10493 10489 10486 10483 10480 10477 10474 10471 10468 10465 10462 10459 10456 10453 10450 10448 10446 10444 10441 10437 10434 10431 10428 10424 10421 10418 10416 10414 10413 10412 10412 10412 10412 10413 10414 10415 10417 10418 10419 10421 10422 10425 10428 10432 10435 10440 10443 10447 10454 10463 10473 10481 10489 10499 10507 10513 10521 10532 10544 10558 10576 10591 10602 10614 10631 10646 10656 10667 10676
10590 10581 10573 10565 10559 10552 10546 10540 10534 10529 10524 10519 10515 10511 10507 10502 10499 10495 10492 10488 10485 10482 10479 10476 10473 10470 10467 10464 10461 10458 10455 10452 10449 10447 10445 10442 10439 10436 10433 10430 10427 10423 10420 10417 10415 10413 10412 10411 10411 10410 10410 10411 10412 10413 10414 10415 10417 10418 10420 10422 10425 10428 10431 10435 10438 10443 10449 10458 10467 10475 10482 10490 10496 10502 10511 10523 10536 10550 10564 10579 10594 10610 10624 10636 10647 10659 10669
10590 10581 10573 10566 10559 10552 10546 10541 10535 10530 10525 10520 10516 10511 10507 10503 10498 10495 10491 10488 10484 10481 10478 10475 10472 10470 10467 10464 10460 10457 10454 10451 10449 10446 10444 10441 10439 10436 10432 10429 10425 10422 10419 10416 10414 10412 10411 10410 10409 10409 10409 10409 10410 10410 10412 10413 10414 10416 10418 10420 10422 10424 10427 10430 10434 10438 10445 10452 10459 10465 10473 10480 10487 10495 10506 10516 10527 10541 10557 10575 10593 10607 10618 10629 10641 10652 10662
10589 10581 10573 10566 10559 10553 10548 10542 10537 10532 10527 10522 10517 10512 10508 10503 10499 10494 10491 10487 10484 10480 10477 10474 10471 10468 10466 10463 10460 10457 10454 10451 10448 10445 10443 10440 10438 10435 10432 10429 10425 10422 10419 10416 10414 10411 10410 10409 10408 10408 10408 10407 10408 10408 10410 10411 10412 10414 10415 10417 10419 10421 10423 10426 10430 10435 10441 10446 10452 10458 10465 10473 10480 10489 10500 10511 10524 10539 10555 10570 10586 10599 10611 10623 10634 10644 10655
10589 10580 10573 10566 10560 10554 10549 10544 10539 10533 10528 10523 10518 10513 10508 10504 10499 10495 10491 10487 10483 10480 10476 10474 10471 10468 10465 10462 10459 10456 10453 10450 10447 10444 10442 10439 10436 10434 10432 10429 10425 10422 10419 10416 10414 10411 10409 10408 10407 10407 10406 10406 10406 10407 10408 10409 10410 10412 10413 10415 10416 10418 10421 10423 10428 10432 10437 10441 10446 10452 10460 10467 10474 10484 10495 10507 10521 10536 10549 10562 10577 10591 10602 10614 10626 10636 10647
10588 10580 10573 10566 10561 10555 10550 10545 10539 10534 10528 10523 10518 10513 10509 10504 10500 10496 10492 10488 10485 10480 10477 10474 10472 10469 10466 10462 10459 10455 10452 10450 10447 10444 10441 10438 10436 10433 10431 10429 10426 10423 10420 10417 10414 10411 10409 10408 10407 10406 10406 10405 10405 10405 10406 10407 10408 10409 10411 10412 10414 10416 10418 10421 10425 10429 10432 10436 10441 10447 10454 10462 10470 10480 10491 10503 10516 10529 10541 10554 10569 10582 10594 10606 10618 10629 10639
10588 10580 10573 10567 10561 10555 10550 10544 10539 10534 10528 10523 10518 10514 10509 10505 10501 10497 10493 10490 10486 10482 10478 10475 10472 10469 10465 10461 10458 10455 10452 10449 10446 10444 10441 10438 10436 10433 10431 10428 10426 10423 10420 10417 10414 10411 10409 10408 10407 10406 10405 10404 10404 10404 10404 10405 10406 10407 10409 10410 10412 10414 10416 10419 10421 10425 10429 10433 10438 10445 10451 10458 10466 10475 10485 10498 10511 10523 10534 10548 10562 10575 10587 10599 10611 10622 10633
10587 10579 10573 10567 10561 10555 10550 10544 10539 10534 10528 10524 10519 10515 10510 10506 10501 10498 10494 10491 10487 10483 10480 10476 10472 10468 10464 10461 10458 10455 10452 10448 10445 10443 10440 10438 10436 10433 10430 10427 10425 10423 10420 10418 10415 10412 10410 10408 10407 10406 10405 10404 10403 10403 10403 10403 10404 10405 10407 10408 10410 10412 10414 10416 10419 10422 10426 10430 10436 10442 10448 10455 10462 10470 10479 10492 10505 10518 10530 10543 10556 10567 10579 10592 10604 10615 10626
10585 10578 10572 10566 10561 10555 10550 10544 10539 10534 10529 10524 10520 10515 10511 10507 10503 10499 10495 10491 10488 10485 10481 10477 10472 10468 10464 10461 10458 10455 10452 10449 10446 10443 10439 10437 10435 10432 10430 10428 10425 10422 10420 10418 10416 10413 10410 10408 10408 10407 10406 10404 10403 10403 10403 10403 10403 10403 10404 10405 10407 10409 10411 10414 10416 10420 10423 10428 10434 10439 10445 10451 10458 10466 10476 10487 10500 10511 10523 10535 10548 10560 10572 10584 10596 10608 10618
10584 10577 10571 10566 10560 10555 10550 10545 10540 10535 10530 10526 10521 10516 10512 10508 10504 10500 10496 10492 10489 10485 10482 10478 10474 10470 10466 10463 10459 10456 10452 10449 10446 10443 10440 10437 10434 10432 10430 10428 10426 10422 10420 10418 10415 10413 10411 10410 10408 10407 10407 10406 10404 10403 10402 10402 10402 10401 10401 10402 10404 10406 10408 10411 10414 10418 10422 10427 10432 10437 10442 10449 10455 10463 10473 10483 10494 10504 10515 10527 10539 10552 10564 10576 10589 10600 10611
10583 10576 10570 10565 10560 10555 10550 10545 10540 10536 10531 10527 10523 10518 10513 10509 10505 10501 10498 10494 10490 10486 10482 10479 10475 10472 10468 10464 10460 10457 10453 10450 10447 10444 10441 10438 10435 10432 10429 10427 10425 10423 10420 10417 10415 10414 10414 10412 10409 10408 10407 10406 10405 10403 10402 10402 10401 10400 10400 10401 10402 10404 10406 10409 10412 10416 10421 10426 10430 10435 10440 10446 10453 10461 10470 10480 10489 10498 10509 10521 10532 10544 10557 10570 10581 10592 10602
10581 10575 10569 10564 10559 10554 10549 10545 10540 10535 10531 10527 10523 10519 10515 10511 10507 10503 10499 10495 10491 10487 10483 10479 10475 10472 10469 10466 10462 10458 10455 10451 10448 10444 10441 10438 10435 10432 10430 10427 10425 10423 10421 10419 10417 10416 10415 10413 10411 10409 10407 10406 10405 10404 10403 10402 10402 10401 10400 10401 10402 10403 10405 10407 10410 10414 10418 10423 10428 10434 10439 10444 10451 10459 10467 10477 10485 10494 10504 10516 10527 10539 10551 10562 10573 10584 10594
10579 10573 10568 10562 10558 10553 10548 10544 10539 10535 10531 10527 10523 10519 10515 10511 10507 10503 10500 10496 10492 10488 10484 10480 10476 10472 10469 10466 10462 10459 10456 10452 10448 10444 10441 10437 10434 10432 10430 10428 10425 10422 10420 10419 10418 10416 10414 10412 10411 10410 10408 10406 10405 10404 10404 10403 10402 10401 10400 10400 10401 10402 10403 10406 10409 10413 10417 10421 10426 10431 10437 10443 10449 10457 10464 10472 10481 10490 10500 10511 10522 10534 10545 10555 10566 10577 10586
10578 10571 10566 10561 10556 10552 10547 10543 10539 10534 10530 10526 10522 10518 10515 10511 10507 10503 10500 10496 10493 10489 10485 10481 10477 10474 10470 10467 10463 10460 10456 10453 10448 10444 10440 10436 10434 10432 10430 10427 10424 10422 10420 10419 10417 10416 10414 10412 10410 10409 10408 10407 10406 10405 10404 10403 10402 10400 10400 10400 10400 10401 10403 10405 10408 10412 10416 10421 10425 10430 10435 10440 10447 10454 10461 10469 10477 10486 10495 10505 10516 10528 10538 10548 10560 10570 10578
10576 10570 10565 10560 10555 10551 10547 10543 10538 10534 10530 10526 10522 10518 10515 10511 10507 10503 10500 10496 10492 10488 10484 10480 10477 10474 10470 10466 10463 10460 10456 10452 10448 10444 10439 10436 10434 10431 10429 10426 10424 10423 10421 10418 10416 10415 10413 10411 10409 10408 10407 10407 10406 10405 10405 10403 10401 10400 10400 10400 10400 10401 10402 10404 10407 10411 10415 10420 10424 10429 10433 10439 10445 10452 10459 10467 10475 10482 10491 10500 10510 10521 10532 10543 10554 10563 10572
10575 10569 10564 10559 10555 10550 10546 10542 10538 10534 10530 10526 10522 10519 10515 10511 10507 10503 10499 10495 10491 10487 10483 10480 10477 10473 10470 10467 10464 10461 10457 10452 10448 10444 10440 10437 10435 10432 10430 10428 10426 10424 10421 10418 10415 10413 10412 10410 10409 10407 10406 10405 10405 10405 10404 10403 10402 10401 10399 10399 10399 10400 10401 10403 10406 10410 10415 10419 10423 10427 10432 10438 10444 10450 10457 10464 10472 10479 10487 10495 10505 10515 10526 10538 10548 10558 10569
10573 10567 10563 10558 10554 10550 10546 10541 10537 10533 10530 10526 10522 10518 10515 10511 10507 10502 10498 10494 10490 10486 10482 10479 10476 10473 10470 10467 10464 10460 10455 10451 10448 10445 10441 10438 10435 10433 10430 10428 10426 10424 10422 10418 10415 10413 10411 10409 10408 10406 10405 10404 10403 10403 10402 10402 10402 10401 10400 10399 10399 10399 10400 10402 10405 10410 10415 10418 10422 10426 10430 10436 10441 10448 10454 10461 10469 10476 10483 10492 10502 10511 10522 10533 10544 10554 10564
10571 10565 10561 10556 10552 10549 10545 10541 10537 10533 10529 10526 10522 10517 10514 10510 10506 10502 10498 10493 10489 10485 10481 10477 10474 10471 10469 10465 10461 10457 10453 10449 10446 10444 10441 10438 10435 10432 10429 10427 10425 10423 10420 10417 10414 10412 10410 10408 10406 10405 10403 10402 10402 10401 10401 10401 10400 10400 10400 10399 10399 10400 10400 10401 10404 10409 10413 10417 10420 10424 10428 10433 10439 10445 10451 10458 10465 10472 10480 10489 10499 10509 10519 10529 10540 10550 10558
10569 10563 10559 10555 10551 10547 10543 10540 10536 10532 10528 10525 10521 10517 10513 10509 10505 10501 10497 10493 10488 10484 10480 10476 10473 10470 10467 10463 10460 10456 10452 10447 10444 10441 10439 10436 10434 10431 10429 10426 10422 10420 10418 10415 10413 10410 10408 10406 10405 10403 10402 10401 10400 10399 10399 10399 10398 10398 10399 10399 10399 10400 10401 10402 10404 10408 10412 10415 10418 10422 10426 10431 10436 10442 10448 10455 10462 10469 10476 10484 10495 10505 10515 10525 10534 10544 10552
10567 10562 10557 10553 10549 10545 10542 10538 10534 10531 10527 10523 10520 10516 10511 10507 10503 10500 10496 10492 10488 10483 10479 10475 10472 10468 10465 10461 10458 10454 10449 10445 10442 10439 10436 10433 10430 10428 10426 10423 10420 10417 10416 10414 10411 10408 10406 10404 10403 10401 10400 10399 10398 10397 10396 10396 10396 10396 10397 10397 10397 10398 10399 10401 10404 10408 10411 10414 10417 10420 10425 10429 10434 10439 10445 10452 10459 10465 10472 10480 10488 10496 10505 10515 10525 10534 10542
10565 10560 10556 10552 10548 10544 10540 10537 10533 10530 10526 10522 10518 10514 10510 10506 10502 10498 10495 10491 10487 10483 10477 10473 10470 10467 10463 10459 10456 10452 10448 10444 10440 10436 10433 10430 10427 10424 10422 10420 10417 10414 10413 10412 10409 10406 10404 10402 10401 10399 10398 10397 10396 10394 10393 10393 10393 10393 10394 10395 10395 10396 10397 10400 10403 10407 10411 10413 10415 10419 10423 10427 10431 10436 10441 10448 10454 10460 10468 10475 10482 10488 10496 10506 10514 10522 10529
10563 10558 10554 10550 10546 10543 10539 10535 10532 10528 10525 10521 10517 10513 10509 10505 10501 10497 10493 10490 10486 10480 10475 10471 10468 10465 10461 10457 10454 10450 10446 10442 10438 10435 10431 10428 10425 10421 10419 10416 10413 10410 10409 10407 10405 10402 10400 10399 10397 10396 10394 10393 10393 10392 10391 10390 10389 10390 10391 10392 10392 10393 10395 10397 10400 10405 10409 10412 10414 10417 10420 10424 10429 10433 10438 10444 10450 10456 10463 10471 10478 10485 10493 10501 10507 10514 10521
10560 10556 10552 10549 10545 10541 10537 10534 10530 10527 10523 10519 10515 10511 10507 10504 10499 10495 10491 10487 10482 10478 10474 10470 10467 10464 10460 10456 10451 10447 10443 10440 10435 10431 10428 10425 10421 10418 10415 10413 10409 10406 10404 10402 10399 10397 10396 10395 10394 10392 10391 10389 10389 10389 10388 10387 10386 10386 10387 10388 10389 10390 10392 10394 10397 10401 10405 10409 10412 10415 10417 10421 10425 10430 10435 10441 10446 10451 10458 10465 10473 10482 10490 10497 10503 10509 10517
10558 10554 10550 10547 10543 10540 10536 10532 10529 10525 10521 10517 10513 10509 10505 10502 10498 10494 10488 10483 10479 10476 10472 10468 10465 10462 10459 10455 10450 10446 10441 10437 10432 10428 10424 10421 10417 10414 10411 10408 10404 10401 10398 10396 10393 10391 10391 10390 10389 10388 10387 10386 10385 10385 10385 10384 10384 10383 10384 10385 10386 10387 10389 10390 10393 10397 10401 10405 10409 10412 10415 10418 10422 10427 10432 10437 10443 10448 10454 10460 10468 10477 10486 10493 10500 10506 10512
10557 10553 10549 10546 10542 10539 10535 10531 10528 10524 10520 10516 10512 10507 10503 10500 10497 10492 10487 10481 10477 10474 10469 10465 10461 10458 10455 10452 10448 10443 10438 10433 10429 10425 10422 10417 10413 10409 10406 10403 10399 10396 10394 10391 10389 10386 10385 10385 10385 10384 10383 10382 10381 10381 10381 10381 10381 10380 10380 10381 10383 10384 10385 10387 10390 10393 10397 10401 10404 10408 10412 10416 10419 10423 10428 10434 10439 10445 10451 10457 10463 10471 10480 10488 10495 10501 10508
10555 10551 10548 10544 10541 10538 10534 10530 10526 10522 10518 10515 10511 10506 10501 10496 10492 10488 10484 10480 10475 10470 10465 10461 10458 10453 10450 10447 10444 10440 10436 10431 10426 10422 10418 10414 10408 10404 10400 10398 10395 10392 10390 10387 10385 10382 10381 10380 10380 10379 10378 10378 10377 10377 10377 10377 10377 10377 10377 10377 10379 10380 10382 10384 10386 10389 10393 10396 10400 10404 10408 10413 10417 10421 10425 10430 10435 10441 10447 10453 10460 10467 10474 10481 10489 10496 10504
10553 10549 10546 10543 10539 10536 10533 10529 10525 10520 10516 10512 10509 10505 10500 10495 10490 10486 10482 10477 10472 10467 10462 10457 10453 10449 10445 10441 10438 10436 10433 10428 10422 10417 10413 10408 10403 10399 10395 10392 10390 10388 10385 10382 10380 10379 10377 10376 10375 10375 10374 10374 10373 10373 10373 10373 10373 10373 10373 10373 10374 10376 10379 10380 10382 10385 10388 10392 10395 10399 10404 10409 10413 10417 10422 10426 10431 10436 10442 10449 10456 10464 10470 10477 10484 10491 10498
10551 10548 10545 10541 10538 10534 10530 10527 10523 10518 10513 10509 10506 10503 10500 10496 10492 10487 10481 10476 10470 10465 10459 10453 10448 10444 10440 10435 10431 10428 10425 10420 10414 10410 10405 10401 10397 10394 10391 10387 10385 10383 10380 10378 10376 10374 10372 10371 10371 10370 10369 10369 10369 10368 10369 10368 10368 10369 10369 10369 10369 10372 10375 10377 10378 10381 10384 10387 10391 10394 10399 10404 10409 10413 10418 10422 10427 10432 10437 10444 10451 10459 10466 10473 10479 10485 10492
10549 10546 10543 10540 10536 10532 10528 10525 10521 10517 10513 10508 10505 10502 10499 10496 10491 10486 10481 10474 10468 10462 10455 10449 10443 10438 10434 10429 10425 10420 10416 10411 10407 10403 10399 10395 10391 10388 10385 10383 10380 10378 10376 10374 10372 10370 10368 10367 10366 10365 10364 10364 10364 10364 10364 10364 10364 10364 10365 10365 10365 10367 10370 10373 10375 10377 10380 10384 10387 10390 10394 10398 10404 10409 10413 10418 10422 10427 10433 10438 10445 10452 10460 10467 10474 10480 10487
10547 10544 10541 10538 10535 10531 10527 10523 10518 10515 10511 10508 10505 10501 10498 10494 10489 10484 10478 10471 10464 10458 10452 10445 10439 10433 10428 10424 10419 10414 10409 10404 10400 10397 10393 10389 10385 10382 10379 10377 10375 10373 10371 10369 10367 10365 10363 10362 10361 10360 10360 10359 10359 10359 10360 10360 10360 10360 10361 10361 10361 10362 10366 10369 10371 10373 10377 10380 10383 10385 10389 10393 10398 10404 10409 10413 10418 10423 10428 10434 10440 10446 10453 10460 10467 10474 10481
10546 10543 10540 10537 10533 10530 10527 10522 10518 10514 10510 10507 10505 10501 10496 10491 10486 10480 10473 10466 10460 10454 10448 10442 10435 10429 10424 10419 10414 10408 10403 10399 10395 10392 10388 10383 10380 10377 10375 10372 10370 10368 10366 10364 10363 10361 10360 10358 10357 10356 10356 10355 10355 10355 10355 10355 10355 10356 10357 10358 10358 10358 10361 10364 10367 10370 10373 10376 10378 10381 10384 10388 10393 10398 10403 10408 10413 10418 10423 10429 10435 10441 10447 10454 10460 10467 10474
10544 10541 10539 10536 10532 10529 10525 10521 10518 10513 10509 10506 10503 10499 10494 10488 10482 10476 10469 10463 10456 10450 10444 10437 10431 10425 10419 10414 10409 10403 10398 10393 10390 10387 10383 10379 10375 10372 10371 10369 10366 10363 10361 10360 10359 10358 10357 10355 10354 10353 10352 10352 10352 10352 10351 10351 10350 10351 10352 10354 10354 10355 10357 10360 10363 10366 10369 10372 10374 10376 10380 10384 10388 10392 10397 10403 10408 10413 10418 10423 10429 10435 10442 10448 10454 10461 10468
10543 10540 10537 10534 10531 10528 10524 10520 10517 10513 10508 10503 10499 10496 10491 10485 10480 10474 10467 10460 10453 10445 10438 10431 10426 10420 10415 10409 10404 10399 10394 10389 10385 10383 10380 10377 10373 10369 10366 10364 10362 10360 10358 10356 10355 10354 10354 10352 10351 10350 10349 10349 10349 10348 10348 10347 10346 10347 10348 10349 10351 10352 10353 10356 10359 10362 10365 10368 10370 10372 10375 10379 10383 10388 10392 10397 10403 10408 10413 10418 10423 10429 10435 10441 10448 10454 10461